sat.trackr.live / text

‹ back to catalog

STARLINK-32463

NORAD 62130 · 2024-222S

PAYLOAD ACTIVE UNKNOWN

§ Identity

Operator
Country
US
Launch date
2024-11-27
Launch site
AFETR
Launch vehicle
Mass (kg)
RCS (m²)

Purposes: comms

External: N2YO · Heavens-Above · Gunter

§ Orbital elements

Epoch: 2026-05-25T04:55:09.960096Z

Period
94.27 min
Inclination
43.0001°
Eccentricity
0.0000679
Mean motion
15.27588505 rev/d
Perigee alt
482.6 km
Apogee alt
483.5 km
Semi-major
6,861.2 km
B*
4.2242e-4
RAAN
63.8391°
Arg perigee
270.8132°
Mean anomaly
89.2642°
Rev number
8,445

§ Raw data

STARLINK-324631 62130U 24222S   26145.20497639  .00011383  00000+0  42242-3 0  99942 62130  43.0001  63.8391 0000679 270.8132  89.2642 15.27588505 84455

JSON: /api/v1/satellites/62130 · /tle

For live sub-satellite position, see the globe view (requires WebGL).

§ Visibility from observer

Set your observer location to see the next 7 days of passes ≥ 10°. The values pass through the URL so the page stays shareable.

No JS? Fill the form by hand. The geolocation button needs JavaScript.